THY5656 LTAC-LTCI

Flight info

Callsign THY5656
Flight time 1h 16m
Altitude 37000
Route GOBIT UG8 MARTI UL614 EZS UT368 BAYIR UG81 BEYAZ
Aircraft B738/M-SDE2E3FGHIRWXY/LB1

Departure

Time 2026-05-07 17:11
Airport Esenboğa International Airport (LTAC)

Arrival

Time 2026-05-07 18:27
Airport Van Ferit Melen Airport (LTCI)
Time Latitude Longitude Altitude Speed Heading
2026-05-07 16:58 40.13420 32.99504 3126 ft 0 kts 126°
2026-05-07 17:02 40.13422 32.99501 3126 ft 0 kts 126°
2026-05-07 17:02 40.13423 32.99498 3126 ft 0 kts 126°
2026-05-07 17:03 40.13425 32.99496 3126 ft 0 kts 126°
2026-05-07 17:03 40.13426 32.99493 3126 ft 0 kts 126°
2026-05-07 17:03 40.13428 32.99490 3126 ft 0 kts 126°
2026-05-07 17:03 40.13430 32.99487 3124 ft 0 kts 126°
2026-05-07 17:04 40.13431 32.99485 3125 ft 0 kts 126°
2026-05-07 17:05 40.13430 32.99486 3125 ft 1 kts 126°
2026-05-07 17:05 40.13410 32.99486 3122 ft 7 kts 180°
2026-05-07 17:06 40.13348 32.99464 3125 ft 11 kts 197°
2026-05-07 17:06 40.13298 32.99497 3125 ft 7 kts 128°
2026-05-07 17:06 40.13315 32.99556 3124 ft 10 kts 45°
2026-05-07 17:06 40.13380 32.99619 3124 ft 14 kts 34°
2026-05-07 17:07 40.13467 32.99700 3125 ft 17 kts 36°
2026-05-07 17:07 40.13568 32.99801 3127 ft 19 kts 37°
2026-05-07 17:07 40.13680 32.99906 3129 ft 20 kts 38°
2026-05-07 17:07 40.13790 33.00011 3130 ft 19 kts 35°
2026-05-07 17:08 40.13893 33.00112 3131 ft 19 kts 41°
2026-05-07 17:08 40.13998 33.00205 3132 ft 18 kts 35°
2026-05-07 17:08 40.14096 33.00300 3133 ft 17 kts 38°
2026-05-07 17:08 40.14190 33.00394 3134 ft 17 kts 37°
2026-05-07 17:09 40.14282 33.00482 3135 ft 16 kts 35°
2026-05-07 17:09 40.14295 33.00601 3135 ft 4 kts 119°
2026-05-07 17:10 40.14283 33.00627 3135 ft 14 kts 120°
2026-05-07 17:10 40.14121 33.00607 3134 ft 41 kts 218°
2026-05-07 17:10 40.13709 33.00210 3130 ft 115 kts 216°
2026-05-07 17:10 40.12861 32.99392 3236 ft 178 kts 218°
2026-05-07 17:11 40.11820 32.98335 3986 ft 200 kts 220°
2026-05-07 17:11 40.10675 32.97195 4888 ft 211 kts 218°
2026-05-07 17:11 40.09476 32.96068 5822 ft 211 kts 217°
2026-05-07 17:11 40.08213 32.94925 6074 ft 231 kts 217°
2026-05-07 17:12 40.06845 32.93678 6356 ft 247 kts 217°
2026-05-07 17:12 40.05414 32.92356 6817 ft 255 kts 217°
2026-05-07 17:12 40.03966 32.91008 7478 ft 258 kts 218°
2026-05-07 17:12 40.02418 32.89811 8249 ft 262 kts 200°
2026-05-07 17:13 40.00635 32.89454 9071 ft 266 kts 181°
2026-05-07 17:13 39.98736 32.89653 9442 ft 288 kts 163°
2026-05-07 17:13 39.96996 32.91004 10053 ft 297 kts 142°
2026-05-07 17:13 39.95319 32.92656 10519 ft 312 kts 144°
2026-05-07 17:14 39.93492 32.94371 10737 ft 334 kts 145°
2026-05-07 17:14 39.91555 32.96133 11273 ft 343 kts 146°
2026-05-07 17:14 39.89428 32.97550 11995 ft 346 kts 166°
2026-05-07 17:14 39.87044 32.97844 12775 ft 346 kts 185°
2026-05-07 17:15 39.84633 32.97615 13558 ft 350 kts 186°
2026-05-07 17:15 39.82184 32.97369 14272 ft 355 kts 186°
2026-05-07 17:15 39.79709 32.97616 14888 ft 362 kts 164°
2026-05-07 17:15 39.77486 32.99159 15140 ft 367 kts 140°
2026-05-07 17:16 39.75841 33.01681 15194 ft 368 kts 123°
2026-05-07 17:16 39.74468 33.04491 15181 ft 368 kts 122°
2026-05-07 17:16 39.73091 33.07310 15164 ft 368 kts 122°
2026-05-07 17:16 39.71853 33.10203 15160 ft 367 kts 109°
2026-05-07 17:17 39.71449 33.13445 15187 ft 364 kts 86°
2026-05-07 17:17 39.71914 33.16688 15465 ft 369 kts 68°
2026-05-07 17:17 39.73094 33.19634 16259 ft 367 kts 57°
2026-05-07 17:17 39.74435 33.22449 17121 ft 367 kts 56°
2026-05-07 17:18 39.75792 33.25232 17840 ft 371 kts 56°
2026-05-07 17:18 39.77178 33.28085 18536 ft 375 kts 56°
2026-05-07 17:18 39.78569 33.30982 19162 ft 379 kts 56°
2026-05-07 17:18 39.79960 33.33906 19797 ft 382 kts 56°
2026-05-07 17:19 39.81356 33.36858 20437 ft 385 kts 56°
2026-05-07 17:19 39.82759 33.39837 21050 ft 388 kts 55°
2026-05-07 17:19 39.84176 33.42846 21662 ft 391 kts 55°
2026-05-07 17:19 39.85600 33.45874 22259 ft 394 kts 55°
2026-05-07 17:20 39.86869 33.49064 22821 ft 404 kts 69°
2026-05-07 17:20 39.87258 33.52725 23372 ft 415 kts 89°
2026-05-07 17:20 39.86693 33.56442 23898 ft 425 kts 106°
2026-05-07 17:20 39.85689 33.60083 24328 ft 429 kts 108°
2026-05-07 17:21 39.84628 33.63735 24735 ft 434 kts 108°
2026-05-07 17:21 39.83551 33.67438 25156 ft 438 kts 108°
2026-05-07 17:21 39.82499 33.71119 25595 ft 442 kts 107°
2026-05-07 17:21 39.81441 33.74883 26018 ft 445 kts 107°
2026-05-07 17:22 39.80383 33.78685 26493 ft 447 kts 107°
2026-05-07 17:22 39.79327 33.82492 26929 ft 450 kts 107°
2026-05-07 17:22 39.78260 33.86333 27296 ft 454 kts 107°
2026-05-07 17:22 39.77179 33.90210 27654 ft 458 kts 107°
2026-05-07 17:23 39.76080 33.94119 28035 ft 462 kts 107°
2026-05-07 17:23 39.74970 33.98044 28426 ft 465 kts 107°
2026-05-07 17:23 39.73849 34.02001 28793 ft 468 kts 107°
2026-05-07 17:23 39.72720 34.05981 29174 ft 471 kts 107°
2026-05-07 17:24 39.71584 34.09982 29559 ft 474 kts 107°
2026-05-07 17:24 39.70437 34.14017 29904 ft 477 kts 106°
2026-05-07 17:24 39.69283 34.18073 30216 ft 481 kts 106°
2026-05-07 17:24 39.68120 34.22157 30501 ft 484 kts 106°
2026-05-07 17:25 39.66945 34.26271 30806 ft 486 kts 106°
2026-05-07 17:25 39.65770 34.30381 31108 ft 487 kts 106°
2026-05-07 17:25 39.64588 34.34510 31445 ft 489 kts 107°
2026-05-07 17:25 39.63402 34.38646 31760 ft 490 kts 107°
2026-05-07 17:26 39.62613 34.41390 31991 ft 490 kts 107°
2026-05-07 17:26 39.61424 34.45524 32379 ft 489 kts 107°
2026-05-07 17:26 39.60236 34.49650 32767 ft 488 kts 107°
2026-05-07 17:26 39.59047 34.53772 33129 ft 488 kts 107°
2026-05-07 17:27 39.57857 34.57892 33465 ft 488 kts 107°
2026-05-07 17:27 39.56666 34.62009 33836 ft 487 kts 107°
2026-05-07 17:27 39.55478 34.66109 34211 ft 486 kts 107°
2026-05-07 17:27 39.54288 34.70209 34508 ft 486 kts 107°
2026-05-07 17:28 39.53099 34.74302 34811 ft 485 kts 107°
2026-05-07 17:28 39.51909 34.78389 35141 ft 483 kts 107°
2026-05-07 17:28 39.50725 34.82450 35454 ft 482 kts 107°
2026-05-07 17:28 39.49537 34.86519 35755 ft 481 kts 108°
2026-05-07 17:29 39.48354 34.90566 36052 ft 481 kts 108°
2026-05-07 17:29 39.47170 34.94608 36367 ft 479 kts 108°
2026-05-07 17:29 39.45988 34.98639 36674 ft 478 kts 108°
2026-05-07 17:29 39.44808 35.02658 36936 ft 477 kts 108°
2026-05-07 17:30 39.43627 35.06675 37169 ft 478 kts 108°
2026-05-07 17:30 39.42440 35.10709 37159 ft 482 kts 108°
2026-05-07 17:30 39.40062 35.18765 37175 ft 482 kts 108°
2026-05-07 17:31 39.37706 35.26855 37162 ft 475 kts 108°
2026-05-07 17:31 39.35417 35.34781 37182 ft 473 kts 108°
2026-05-07 17:32 39.33097 35.42787 37192 ft 472 kts 108°
2026-05-07 17:32 39.30795 35.50685 37187 ft 473 kts 108°
2026-05-07 17:33 39.28471 35.58632 37190 ft 473 kts 108°
2026-05-07 17:33 39.26136 35.66590 37209 ft 475 kts 109°
2026-05-07 17:34 39.23792 35.74560 37211 ft 476 kts 109°
2026-05-07 17:34 39.21435 35.82549 37202 ft 477 kts 109°
2026-05-07 17:35 39.19069 35.90545 37199 ft 478 kts 109°
2026-05-07 17:35 39.16695 35.98544 37217 ft 479 kts 109°
2026-05-07 17:36 39.14786 36.06724 37199 ft 475 kts 97°
2026-05-07 17:36 39.13758 36.15129 37202 ft 475 kts 96°
2026-05-07 17:37 39.12756 36.23549 37189 ft 475 kts 96°
2026-05-07 17:37 39.11711 36.31952 37192 ft 475 kts 97°
2026-05-07 17:38 39.10636 36.40341 37198 ft 474 kts 97°
2026-05-07 17:38 39.09553 36.48706 37187 ft 474 kts 97°
2026-05-07 17:39 39.08464 36.57064 37198 ft 473 kts 97°
2026-05-07 17:39 39.07373 36.65402 37190 ft 472 kts 97°
2026-05-07 17:40 39.06277 36.73731 37190 ft 472 kts 97°
2026-05-07 17:40 39.05183 36.82002 37194 ft 472 kts 97°
2026-05-07 17:41 39.04076 36.90322 37195 ft 472 kts 97°
2026-05-07 17:41 39.02964 36.98638 37182 ft 472 kts 97°
2026-05-07 17:42 39.01845 37.06952 37184 ft 472 kts 97°
2026-05-07 17:42 39.00720 37.15265 37184 ft 472 kts 97°
2026-05-07 17:43 38.99589 37.23584 37183 ft 473 kts 98°
2026-05-07 17:43 38.98450 37.31911 37178 ft 473 kts 98°
2026-05-07 17:44 38.97304 37.40237 37182 ft 473 kts 98°
2026-05-07 17:44 38.96152 37.48571 37163 ft 473 kts 98°
2026-05-07 17:45 38.94994 37.56895 37174 ft 473 kts 98°
2026-05-07 17:45 38.93829 37.65232 37190 ft 474 kts 98°
2026-05-07 17:46 38.92656 37.73576 37166 ft 475 kts 98°
2026-05-07 17:46 38.91475 37.81925 37167 ft 476 kts 98°
2026-05-07 17:47 38.90296 37.90227 37161 ft 475 kts 99°
2026-05-07 17:47 38.89103 37.98575 37154 ft 476 kts 99°
2026-05-07 17:48 38.87904 38.06927 37164 ft 476 kts 99°
2026-05-07 17:48 38.86699 38.15276 37136 ft 476 kts 99°
2026-05-07 17:49 38.85487 38.23626 37138 ft 476 kts 99°
2026-05-07 17:49 38.84269 38.31969 37145 ft 476 kts 99°
2026-05-07 17:50 38.83045 38.40318 37138 ft 476 kts 99°
2026-05-07 17:50 38.81816 38.48662 37131 ft 476 kts 100°
2026-05-07 17:51 38.80579 38.57005 37132 ft 476 kts 100°
2026-05-07 17:51 38.79337 38.65343 37120 ft 476 kts 100°
2026-05-07 17:52 38.78099 38.73616 37125 ft 476 kts 100°
2026-05-07 17:52 38.76848 38.81938 37109 ft 475 kts 101°
2026-05-07 17:53 38.75592 38.90253 37127 ft 475 kts 101°
2026-05-07 17:53 38.74355 38.98551 37122 ft 474 kts 100°
2026-05-07 17:54 38.73126 39.06854 37129 ft 474 kts 101°
2026-05-07 17:54 38.71889 39.15150 37123 ft 475 kts 101°
2026-05-07 17:55 38.70689 39.23472 37120 ft 475 kts 97°
2026-05-07 17:55 38.70260 39.31914 37125 ft 475 kts 92°
2026-05-07 17:56 38.69983 39.40360 37127 ft 476 kts 92°
2026-05-07 17:56 38.69614 39.48823 37119 ft 476 kts 93°
2026-05-07 17:57 38.69283 39.55851 37119 ft 476 kts 93°
2026-05-07 17:57 38.68843 39.65681 37119 ft 476 kts 93°
2026-05-07 17:58 38.68464 39.74143 37114 ft 476 kts 93°
2026-05-07 17:58 38.68076 39.82611 37131 ft 476 kts 94°
2026-05-07 17:59 38.67681 39.91068 37118 ft 476 kts 94°
2026-05-07 17:59 38.67280 39.99527 37131 ft 477 kts 94°
2026-05-07 18:00 38.66872 40.07998 37126 ft 477 kts 94°
2026-05-07 18:00 38.66459 40.16474 37135 ft 477 kts 94°
2026-05-07 18:01 38.66040 40.24945 37134 ft 477 kts 94°
2026-05-07 18:01 38.65624 40.33411 37142 ft 477 kts 95°
2026-05-07 18:02 38.64991 40.46132 37137 ft 478 kts 95°
2026-05-07 18:03 38.64562 40.54558 37153 ft 478 kts 95°
2026-05-07 18:03 38.64125 40.63046 37139 ft 479 kts 95°
2026-05-07 18:04 38.63679 40.71575 36614 ft 485 kts 95°
2026-05-07 18:04 38.63453 40.75872 36097 ft 482 kts 95°
2026-05-07 18:04 38.63226 40.80143 35581 ft 480 kts 95°
2026-05-07 18:04 38.62997 40.84380 35167 ft 476 kts 96°
2026-05-07 18:05 38.62751 40.88590 34755 ft 472 kts 96°
2026-05-07 18:05 38.62496 40.92763 34324 ft 468 kts 96°
2026-05-07 18:05 38.62239 40.96908 33819 ft 466 kts 96°
2026-05-07 18:05 38.61982 41.01029 33348 ft 463 kts 96°
2026-05-07 18:06 38.61729 41.05110 32898 ft 458 kts 96°
2026-05-07 18:06 38.61478 41.09154 32476 ft 454 kts 96°
2026-05-07 18:06 38.61228 41.13164 32052 ft 450 kts 96°
2026-05-07 18:06 38.60980 41.17136 31637 ft 446 kts 96°
2026-05-07 18:07 38.60732 41.21085 31235 ft 443 kts 96°
2026-05-07 18:07 38.60485 41.24995 30829 ft 440 kts 96°
2026-05-07 18:07 38.60239 41.28875 30418 ft 436 kts 96°
2026-05-07 18:07 38.59995 41.32718 29957 ft 433 kts 97°
2026-05-07 18:08 38.59753 41.36487 29501 ft 429 kts 97°
2026-05-07 18:08 38.59505 41.40327 29064 ft 425 kts 97°
2026-05-07 18:08 38.59275 41.44015 28656 ft 420 kts 96°
2026-05-07 18:08 38.59054 41.47710 28271 ft 415 kts 96°
2026-05-07 18:09 38.58837 41.51375 27842 ft 411 kts 96°
2026-05-07 18:09 38.58621 41.55007 27427 ft 408 kts 96°
2026-05-07 18:09 38.58406 41.58609 27021 ft 405 kts 96°
2026-05-07 18:09 38.58190 41.62177 26623 ft 401 kts 96°
2026-05-07 18:10 38.57975 41.65713 26229 ft 397 kts 96°
2026-05-07 18:10 38.57762 41.69217 25820 ft 395 kts 96°
2026-05-07 18:10 38.57547 41.72701 25441 ft 392 kts 96°
2026-05-07 18:10 38.57332 41.76158 25049 ft 389 kts 96°
2026-05-07 18:11 38.57117 41.79601 24660 ft 387 kts 96°
2026-05-07 18:11 38.56975 41.81866 24409 ft 386 kts 96°
2026-05-07 18:11 38.56688 41.86426 23888 ft 383 kts 96°
2026-05-07 18:11 38.56474 41.89810 23467 ft 381 kts 96°
2026-05-07 18:12 38.56262 41.93163 23034 ft 378 kts 96°
2026-05-07 18:12 38.56052 41.96457 22633 ft 375 kts 96°
2026-05-07 18:12 38.55840 41.99766 22247 ft 372 kts 96°
2026-05-07 18:12 38.55629 42.03045 21877 ft 368 kts 96°
2026-05-07 18:13 38.55420 42.06283 21489 ft 365 kts 96°
2026-05-07 18:13 38.55211 42.09499 21125 ft 362 kts 96°
2026-05-07 18:13 38.55073 42.11615 20880 ft 360 kts 96°
2026-05-07 18:13 38.54796 42.15860 20399 ft 357 kts 96°
2026-05-07 18:14 38.54659 42.17947 20155 ft 355 kts 95°
2026-05-07 18:14 38.54452 42.21088 19796 ft 353 kts 95°
2026-05-07 18:14 38.54245 42.24206 19434 ft 351 kts 95°
2026-05-07 18:14 38.54040 42.27301 19085 ft 349 kts 95°
2026-05-07 18:15 38.53834 42.30378 18723 ft 347 kts 95°
2026-05-07 18:15 38.53630 42.33435 18365 ft 345 kts 95°
2026-05-07 18:15 38.53425 42.36474 17967 ft 343 kts 95°
2026-05-07 18:15 38.53222 42.39494 17626 ft 339 kts 95°
2026-05-07 18:16 38.53019 42.42476 17306 ft 335 kts 96°
2026-05-07 18:16 38.52819 42.45419 17021 ft 330 kts 96°
2026-05-07 18:16 38.52622 42.48317 16714 ft 327 kts 96°
2026-05-07 18:16 38.52425 42.51208 16326 ft 326 kts 96°
2026-05-07 18:17 38.52227 42.54090 15969 ft 325 kts 96°
2026-05-07 18:17 38.52030 42.56947 15645 ft 322 kts 96°
2026-05-07 18:17 38.51833 42.59794 15294 ft 321 kts 96°
2026-05-07 18:17 38.51636 42.62621 14930 ft 320 kts 96°
2026-05-07 18:18 38.51440 42.65440 14636 ft 317 kts 96°
2026-05-07 18:18 38.51245 42.68229 14322 ft 315 kts 96°
2026-05-07 18:18 38.51050 42.71019 13942 ft 315 kts 96°
2026-05-07 18:18 38.50854 42.73792 13617 ft 312 kts 96°
2026-05-07 18:19 38.50660 42.76539 13398 ft 306 kts 96°
2026-05-07 18:19 38.50313 42.79175 13123 ft 300 kts 113°
2026-05-07 18:19 38.49341 42.81472 12963 ft 286 kts 123°
2026-05-07 18:19 38.48334 42.83609 12635 ft 280 kts 123°
2026-05-07 18:20 38.47342 42.85722 12298 ft 281 kts 122°
2026-05-07 18:20 38.46345 42.87858 12034 ft 279 kts 122°
2026-05-07 18:20 38.45362 42.89973 11788 ft 276 kts 122°
2026-05-07 18:20 38.44375 42.92106 11533 ft 274 kts 122°
2026-05-07 18:21 38.43426 42.94159 11290 ft 272 kts 122°
2026-05-07 18:21 38.42469 42.96231 11046 ft 269 kts 122°
2026-05-07 18:21 38.41522 42.98280 10801 ft 268 kts 122°
2026-05-07 18:21 38.40580 43.00318 10557 ft 266 kts 122°
2026-05-07 18:22 38.39644 43.02341 10308 ft 264 kts 122°
2026-05-07 18:22 38.39027 43.03673 10158 ft 263 kts 122°
2026-05-07 18:22 38.37788 43.06347 9813 ft 261 kts 122°
2026-05-07 18:22 38.36868 43.08332 9549 ft 259 kts 122°
2026-05-07 18:23 38.35950 43.10309 9292 ft 258 kts 121°
2026-05-07 18:23 38.35042 43.12266 9061 ft 254 kts 121°
2026-05-07 18:23 38.34182 43.14185 8832 ft 246 kts 114°
2026-05-07 18:23 38.33939 43.16274 8575 ft 237 kts 79°
2026-05-07 18:24 38.34509 43.18183 8366 ft 226 kts 56°
2026-05-07 18:24 38.35451 43.19724 8174 ft 216 kts 48°
2026-05-07 18:24 38.36401 43.21163 7966 ft 208 kts 48°
2026-05-07 18:24 38.37315 43.22556 7754 ft 201 kts 49°
2026-05-07 18:25 38.38180 43.23888 7582 ft 189 kts 47°
2026-05-07 18:25 38.39058 43.25026 7381 ft 175 kts 38°
2026-05-07 18:25 38.39930 43.26012 7213 ft 165 kts 41°
2026-05-07 18:25 38.40737 43.27038 6990 ft 162 kts 42°
2026-05-07 18:26 38.41560 43.28013 6708 ft 162 kts 37°
2026-05-07 18:26 38.42428 43.28937 6404 ft 163 kts 35°
2026-05-07 18:26 38.43336 43.29773 6147 ft 160 kts 34°
2026-05-07 18:26 38.44226 43.30632 5897 ft 159 kts 37°
2026-05-07 18:27 38.45073 43.31497 5652 ft 157 kts 40°
2026-05-07 18:27 38.45929 43.32345 5497 ft 155 kts 41°
2026-05-07 18:27 38.46734 43.33141 5477 ft 125 kts 38°
2026-05-07 18:27 38.47194 43.33597 5485 ft 23 kts 38°
2026-05-07 18:28 38.47169 43.33705 5483 ft 14 kts 132°
2026-05-07 18:28 38.47098 43.33775 5480 ft 12 kts 189°
2026-05-07 18:28 38.47028 43.33734 5480 ft 9 kts 169°
2026-05-07 18:28 38.46997 43.33770 5478 ft 5 kts 129°
2026-05-07 18:29 38.46996 43.33772 5478 ft 0 kts 129°